Tracking 29892 objects as of 21-Nov-2024
HD Live streaming from Space Station
objects crossing your sky now

STARLINK-2493

Track STARLINK-2493 now!
10-day predictions
STARLINK-2493 is classified as:


NORAD ID: 48150
Int'l Code: 2021-027BL
Perigee: 553.3 km
Apogee: 555.2 km
Inclination: 53.1 °
Period: 95.6 minutes
Semi major axis: 6925 km
RCS: Unknown
Launch date: April 7, 2021
Source: United States (US)
Launch site: AIR FORCE EASTERN TEST RANGE (AFETR)
Your satellite tracking list
Your tracking list is empty




NASA's NSSDC Master Catalog

Two Line Element Set (TLE):
1 48150U 21027BL  24325.84565888  .00009440  00000-0  65115-3 0  9996
2 48150  53.0535 118.7860 0001426  83.3839 276.7312 15.06434582200883
Source of the keplerian elements: AFSPC